Regional Weather Roundup
Issued by NWS

Home | Current Version | Previous Version | Text Only | Print | Product List | Glossary On
Versions: 1 2 3 4 5 6 7 8 9 10 11 12 13 14 15 16 17 18 19 20 21 22 23 24 25 26 27
000
ASUS42 KKEY 142110
RWRKEY

FLORIDA REGIONAL WEATHER ROUNDUP FOR THE FLORIDA KEYS
NATIONAL WEATHER SERVICE KEY WEST FLORIDA
400 PM EST THU DEC 14 2017

...SOUTH FLORIDA AND THE KEYS...

CITY           SKY/WX    TMP DP  RH WIND       PRES   REMARKS
FORT MYERS     SUNNY     71  53  52 SW8       30.03S
SW REGIONAL AP SUNNY     70  53  54 W8        30.03F
NAPLES         SUNNY     68  54  60 S8        30.04S
MIAMI          MOSUNNY   72  41  32 CALM      30.04F
WEST KENDALL   MOSUNNY   69  43  38 W5        30.04F
HOMESTEAD      SUNNY     70  49  48 E6        30.04S
MARATHON       SUNNY     67  51  56 CALM      30.05F
KEY WEST INTL  SUNNY     67  55  65 SE8       30.06F

...INTERNATIONAL WEATHER...

CITY           SKY/WX    TMP DP  RH WIND       PRES   REMARKS
NASSAU BAHAMAS MOSUNNY   75  57  53 NW3       30.05F
CANCUN MEXICO  PTSUNNY   77  63  61 NE6       29.99F
COZUMEL MEXICO PTSUNNY   77  64  65 NE8       29.97F

ADJACENT COASTAL WATERS...

STATION/POSITION TIME  SKY/WX   TEMP    WIND        PRES    WAVE
                                AIR SEA DIR/SP/G            HT/PER
                 (UTC)          (F)     (DEG/KT/KT) (MB)    (FT/S)
PULASKI SHOAL LI 2000            68     130/ 10/ 11 1017.5F
SAND KEY         1950            65                 1018.6F
LONG KEY         NOT AVBL
MOLASSES REEF    2000            67 77  330/  1/  2 1018.2F
FOWEY ROCKS      2000            67 77  240/  1/  2 1018.2F
Buoy 42097       2000               76                N/A     2/ 7

$$




USA.gov is the U.S. government's official web portal to all federal, state and local government web resources and services.